Location: Bailleul
(50.3375°N, 2.8513°E)
Time: 08:52:41
(UTC+00:00)

deb Kosmos-252 - Pass Details

Date: 03 February 2022
Orbit: 721 x 1918 km, 62.3° (Epoch: 22 May)

Event Time Altitude Azimuth Distance (km) Brightness Sun altitude
Rises 19:01:14 0° 314° (NW) 3,154 ? -21.8°
Reaches altitude 10° 19:03:35 10° 318° (NW) 2,218 ? -22.2°
Maximum altitude 19:08:26 59° 39° (NE) 869 ? -23.0°
Enters shadow 19:08:52 56° 62° (ENE) 893 ? -23.1°
